Tracking 34747 objects as of 16-Jul-2026
HD Live streaming from Space Station
objects crossing your sky now

BREEZE-M DEB

Track BREEZE-M DEB now!
10-day predictions


NORAD ID: 32041
Int'l Code: 2006-006U
Perigee: 342.6 km
Apogee: 8,476.1 km
Inclination: 51.7 °
Period: 185.7 minutes
Semi major axis: 10780 km
RCS: 0.0201 m2 (small)
Launch date: February 28, 2006
Source: Commonwealth of Independent States (former USSR) (CIS)
Launch site: TYURATAM MISSILE AND SPACE COMPLEX (TTMTR)

Note: This is SATELLITE DEBRIS
Your satellite tracking list
Your tracking list is empty




NASA's NSSDC Master Catalog

Two Line Element Set (TLE):
1 32041U 06006U   26185.55045675  .00069779  00000-0  10555-1 0  9996
2 32041  51.6975 255.4961 3772388 182.4702 175.0696  7.75629772439247
Source of the keplerian elements: AFSPC